Charleston, SC

2:59 PM EST on February 14, 2016 (GMT -0500)
Charleston Executive

Weather History for KJZI - March, 2014

Change the Weather History Date:

Thursday, March 27, 2014

  Actual Average (KCHS) Record (KCHS)
Temperature  
Mean Temperature 48 °F 61 °F  
Max Temperature 62 °F 72 °F 85 °F (1949)
Min Temperature 33 °F 49 °F 26 °F (1955)
Degree Days  
Heating Degree Days 18 6  
Month to date heating degree days 220  
Since 1 July heating degree days 1856  
Cooling Degree Days 0 1  
Month to date cooling degree days 25  
Year to date cooling degree days 32  
Moisture  
Dew Point 40 °F    
Average Humidity 73    
Maximum Humidity 94    
Minimum Humidity 39    
Precipitation  
Precipitation 0.00 in 0.12 in 2.40 in (2005)
Month to date precipitation 3.22  
Year to date precipitation 9.89  
Sea Level Pressure  
Sea Level Pressure 30.38 in    
Wind  
Wind Speed 3 mph (East)    
Max Wind Speed 15 mph    
Max Gust Speed 21 mph    
Visibility 10 miles    
Events      
T = Trace of Precipitation, MM = Missing Value Source: NWS Daily Summary

Daily Weather History Graph

Daily Weather History Graph

Search for Another Location

Airport or City:

Trip Planner

Search our weather history database for the weather conditions in past years. The results will help you decide how hot, cold, wet, or windy it might be!

Date:

Astronomy

Mar. 27, 2014 Rise Set
Actual Time 7:14 AM EDT 7:36 PM EDT
Civil Twilight 6:49 AM EDT 8:01 PM EDT
Nautical Twilight 6:21 AM EDT 8:30 PM EDT
Astronomical Twilight 5:51 AM EDT 8:59 PM EDT
Moon 4:53 AM EDT (3/27) 4:31 PM EDT (3/27)
Length of Visible Light 13h 11m
Length of Day
12h 22m
Waning Crescent, 13% of the Moon is Illuminated
Mar 27
Waning Crescent
Mar 30
New
Apr 7
First Quarter
Apr 15
Full
Apr 22
Last Quarter

Hourly Weather History & Observations

Time (EDT) Temp. Dew Point Humidity Pressure Visibility Wind Dir Wind Speed Gust Speed Precip Events Conditions
12:15 AM 35.6 °F 30.2 °F 81% 30.35 in 10.0 mi Calm Calm - 0.00 in   Clear
12:35 AM 35.6 °F 30.2 °F 81% 30.35 in 10.0 mi Calm Calm - 0.00 in   Clear
12:55 AM 37.4 °F 32.0 °F 81% 30.35 in 10.0 mi Calm Calm - 0.00 in   Clear
1:15 AM 37.4 °F 30.2 °F 75% 30.35 in 10.0 mi Calm Calm - 0.00 in   Clear
1:35 AM 35.6 °F 30.2 °F 81% 30.35 in 10.0 mi Calm Calm - 0.00 in   Clear
1:55 AM 35.6 °F 32.0 °F 87% 30.35 in 10.0 mi Calm Calm - 0.00 in   Clear
2:15 AM 35.6 °F 32.0 °F 87% 30.35 in 10.0 mi Calm Calm - 0.00 in   Clear
2:35 AM 35.6 °F 32.0 °F 87% 30.35 in 10.0 mi Calm Calm - 0.00 in   Clear
2:55 AM 35.6 °F 32.0 °F 87% 30.35 in 10.0 mi Calm Calm - 0.00 in   Clear
3:15 AM 35.6 °F 32.0 °F 87% 30.35 in 10.0 mi Calm Calm - 0.00 in   Clear
3:35 AM 35.6 °F 32.0 °F 87% 30.35 in 10.0 mi Calm Calm - 0.00 in   Clear
3:55 AM 33.8 °F 30.2 °F 87% 30.35 in 10.0 mi Calm Calm - 0.00 in   Clear
4:15 AM 35.6 °F 32.0 °F 87% 30.36 in 10.0 mi Calm Calm - 0.00 in   Clear
4:35 AM 35.6 °F 32.0 °F 87% 30.36 in 10.0 mi Calm Calm - 0.00 in   Clear
4:55 AM 35.6 °F 32.0 °F 87% 30.36 in 10.0 mi Calm Calm - 0.00 in   Clear
5:15 AM 35.6 °F 32.0 °F 87% 30.36 in 10.0 mi Calm Calm - 0.00 in   Clear
5:35 AM 35.6 °F 32.0 °F 87% 30.36 in 10.0 mi Calm Calm - 0.00 in   Clear
5:55 AM 35.6 °F 32.0 °F 87% 30.36 in 10.0 mi Calm Calm - 0.00 in   Clear
6:15 AM 35.6 °F 32.0 °F 87% 30.37 in 10.0 mi Calm Calm - 0.00 in   Clear
6:35 AM 35.6 °F 32.0 °F 87% 30.37 in 10.0 mi Calm Calm - 0.00 in   Clear
6:55 AM 35.6 °F 32.0 °F 87% 30.37 in 10.0 mi Calm Calm - 0.00 in   Clear
7:15 AM 35.6 °F 33.8 °F 93% 30.38 in 9.0 mi Calm Calm - 0.00 in   Clear
7:35 AM 35.6 °F 33.8 °F 93% 30.39 in 10.0 mi Calm Calm - 0.00 in   Clear
7:55 AM 35.6 °F 33.8 °F 93% 30.39 in 10.0 mi Calm Calm - 0.00 in   Clear
8:15 AM 37.4 °F 35.6 °F 93% 30.40 in 10.0 mi Calm Calm - 0.00 in   Clear
8:35 AM 41.0 °F 37.4 °F 87% 30.40 in 10.0 mi Calm Calm - 0.00 in   Clear
8:55 AM 42.8 °F 41.0 °F 93% 30.41 in 10.0 mi Calm Calm - 0.00 in   Clear
9:15 AM 48.2 °F 44.6 °F 87% 30.42 in 10.0 mi Calm Calm - 0.00 in   Clear
9:35 AM 53.6 °F 42.8 °F 67% 30.43 in 10.0 mi Calm Calm - 0.00 in   Clear
9:55 AM 55.4 °F 37.4 °F 51% 30.44 in 10.0 mi East 9.2 mph - 0.00 in   Clear
10:15 AM 57.2 °F 33.8 °F 41% 30.45 in 10.0 mi East 11.5 mph - 0.00 in   Clear
10:35 AM 57.2 °F 33.8 °F 41% 30.45 in 10.0 mi ENE 11.5 mph - 0.00 in   Clear
10:55 AM 59.0 °F 35.6 °F 42% 30.45 in 10.0 mi East 12.7 mph 16.1 mph 0.00 in   Clear
11:15 AM 59.0 °F 35.6 °F 42% 30.46 in 10.0 mi ENE 10.4 mph - 0.00 in   Clear
11:35 AM 60.8 °F 35.6 °F 39% 30.47 in 10.0 mi East 10.4 mph - 0.00 in   Clear
11:55 AM 60.8 °F 37.4 °F 42% 30.47 in 10.0 mi East 12.7 mph 16.1 mph 0.00 in   Scattered Clouds
12:15 PM 60.8 °F 37.4 °F 42% 30.46 in 10.0 mi ENE 11.5 mph 16.1 mph 0.00 in   Scattered Clouds
12:35 PM 60.8 °F 39.2 °F 45% 30.45 in 10.0 mi East 12.7 mph 16.1 mph 0.00 in   Mostly Cloudy
12:55 PM 60.8 °F 41.0 °F 48% 30.44 in 10.0 mi East 13.8 mph 17.3 mph 0.00 in   Partly Cloudy
1:15 PM 60.8 °F 42.8 °F 52% 30.44 in 10.0 mi ENE 13.8 mph 17.3 mph 0.00 in   Scattered Clouds
1:35 PM 62.6 °F 42.8 °F 48% 30.44 in 10.0 mi ENE 12.7 mph - 0.00 in   Partly Cloudy
1:55 PM 60.8 °F 42.8 °F 52% 30.43 in 10.0 mi East 12.7 mph 18.4 mph 0.00 in   Clear
2:15 PM 60.8 °F 42.8 °F 52% 30.43 in 10.0 mi East 12.7 mph 18.4 mph 0.00 in   Clear
2:35 PM 62.6 °F 44.6 °F 52% 30.42 in 10.0 mi East 11.5 mph - 0.00 in   Clear
2:55 PM 60.8 °F 42.8 °F 52% 30.41 in 10.0 mi ENE 12.7 mph 20.7 mph 0.00 in   Clear
3:15 PM 60.8 °F 42.8 °F 52% 30.39 in 10.0 mi East 15.0 mph - 0.00 in   Clear
3:35 PM 60.8 °F 42.8 °F 52% 30.39 in 9.0 mi East 13.8 mph - 0.00 in   Clear
3:55 PM 60.8 °F 42.8 °F 52% 30.38 in 10.0 mi East 12.7 mph 19.6 mph 0.00 in   Clear
4:15 PM 60.8 °F 44.6 °F 55% 30.38 in 10.0 mi East 13.8 mph - 0.00 in   Clear
4:35 PM 60.8 °F 44.6 °F 55% 30.37 in 10.0 mi East 12.7 mph - 0.00 in   Clear
4:55 PM 60.8 °F 46.4 °F 59% 30.37 in 10.0 mi East 12.7 mph - 0.00 in   Clear
5:15 PM 60.8 °F 46.4 °F 59% 30.37 in 10.0 mi East 11.5 mph - 0.00 in   Partly Cloudy
5:35 PM 60.8 °F 46.4 °F 59% 30.36 in 10.0 mi East 11.5 mph - 0.00 in   Clear
5:55 PM 59.0 °F 46.4 °F 63% 30.36 in 10.0 mi East 13.8 mph 17.3 mph 0.00 in   Clear
6:15 PM 59.0 °F 46.4 °F 63% 30.36 in 10.0 mi ENE 9.2 mph - 0.00 in   Clear
6:35 PM 57.2 °F 48.2 °F 72% 30.36 in 10.0 mi East 10.4 mph - 0.00 in   Clear
6:55 PM 57.2 °F 48.2 °F 72% 30.35 in 10.0 mi East 10.4 mph - 0.00 in   Clear
7:15 PM 57.2 °F 48.2 °F 72% 30.35 in 10.0 mi East 8.1 mph - 0.00 in   Clear
7:35 PM 55.4 °F 48.2 °F 77% 30.34 in 10.0 mi East 6.9 mph - 0.00 in   Clear
7:55 PM 55.4 °F 48.2 °F 77% 30.33 in 10.0 mi East 8.1 mph - 0.00 in   Clear
8:15 PM 53.6 °F 48.2 °F 82% 30.32 in 10.0 mi Calm Calm - 0.00 in   Clear
8:35 PM 53.6 °F 48.2 °F 82% 30.32 in 10.0 mi Calm Calm - 0.00 in   Clear
8:55 PM 53.6 °F 50.0 °F 88% 30.31 in 10.0 mi Calm Calm - 0.00 in   Clear
9:15 PM 53.6 °F 50.0 °F 88% 30.31 in 10.0 mi Calm Calm - 0.00 in   Clear
9:35 PM 53.6 °F 50.0 °F 88% 30.31 in 10.0 mi Calm Calm - 0.00 in   Clear
9:55 PM 51.8 °F 48.2 °F 88% 30.32 in 10.0 mi Calm Calm - 0.00 in   Clear
10:15 PM 51.8 °F 48.2 °F 88% 30.33 in 10.0 mi Calm Calm - 0.00 in   Clear
10:35 PM 51.8 °F 48.2 °F 88% 30.33 in 10.0 mi Calm Calm - 0.00 in   Clear
10:55 PM 50.0 °F 48.2 °F 94% 30.33 in 10.0 mi Calm Calm - 0.00 in   Clear
11:15 PM 50.0 °F 48.2 °F 94% 30.33 in 10.0 mi Calm Calm - 0.00 in   Clear
11:35 PM 51.8 °F 48.2 °F 88% 30.33 in 10.0 mi Calm Calm - 0.00 in   Clear
11:55 PM 50.0 °F 48.2 °F 94% 30.32 in 10.0 mi Calm Calm - 0.00 in   Partly Cloudy